ANA9062 RJFF-RJTT

Flight info

Callsign ANA9062
Flight time N/A
Altitude 41000
Route IPRIR Y231 OMKAT Y235 FLUTE Y23 ARTIC Y71 XAC
Aircraft B772/H-SDE2FGHIJ3J5LM1OP2RVWXY/LB1D1

Departure

Time 2026-05-07 13:19
Airport Fukuoka Airport (RJFF)

Arrival

Time N/A
Airport Tokyo Haneda International Airport (RJTT)
Time Latitude Longitude Altitude Speed Heading
2026-05-07 12:52 33.59845 130.44654 29 ft 0 kts 60°
2026-05-07 12:58 33.59842 130.44649 29 ft 3 kts 60°
2026-05-07 12:58 33.59829 130.44621 28 ft 4 kts 60°
2026-05-07 12:59 33.59818 130.44597 27 ft 4 kts 71°
2026-05-07 12:59 33.59816 130.44568 27 ft 4 kts 117°
2026-05-07 12:59 33.59834 130.44546 27 ft 4 kts 149°
2026-05-07 12:59 33.59855 130.44531 27 ft 2 kts 150°
2026-05-07 13:00 33.59856 130.44530 29 ft 0 kts 150°
2026-05-07 13:04 33.59827 130.44551 29 ft 6 kts 150°
2026-05-07 13:04 33.59783 130.44581 29 ft 9 kts 150°
2026-05-07 13:04 33.59701 130.44637 29 ft 20 kts 150°
2026-05-07 13:05 33.59575 130.44724 29 ft 21 kts 150°
2026-05-07 13:05 33.59450 130.44809 28 ft 20 kts 150°
2026-05-07 13:05 33.59321 130.44854 29 ft 20 kts 177°
2026-05-07 13:05 33.59189 130.44886 29 ft 20 kts 150°
2026-05-07 13:06 33.59071 130.44968 30 ft 20 kts 150°
2026-05-07 13:06 33.58952 130.45050 31 ft 20 kts 150°
2026-05-07 13:06 33.58833 130.45132 31 ft 20 kts 150°
2026-05-07 13:06 33.58714 130.45213 32 ft 20 kts 150°
2026-05-07 13:07 33.58595 130.45294 33 ft 20 kts 150°
2026-05-07 13:07 33.58475 130.45375 34 ft 20 kts 150°
2026-05-07 13:07 33.58356 130.45456 36 ft 20 kts 150°
2026-05-07 13:07 33.58237 130.45537 36 ft 20 kts 150°
2026-05-07 13:08 33.58118 130.45617 38 ft 20 kts 150°
2026-05-07 13:08 33.58001 130.45698 42 ft 20 kts 150°
2026-05-07 13:08 33.57881 130.45780 45 ft 20 kts 150°
2026-05-07 13:08 33.57800 130.45836 46 ft 10 kts 150°
2026-05-07 13:09 33.57747 130.45863 47 ft 8 kts 174°
2026-05-07 13:09 33.57699 130.45834 47 ft 5 kts 227°
2026-05-07 13:09 33.57690 130.45818 48 ft 2 kts 241°
2026-05-07 13:09 33.57689 130.45815 48 ft 0 kts 243°
2026-05-07 13:17 33.57686 130.45808 48 ft 6 kts 243°
2026-05-07 13:17 33.57664 130.45757 46 ft 6 kts 243°
2026-05-07 13:17 33.57665 130.45710 47 ft 6 kts 307°
2026-05-07 13:17 33.57703 130.45677 47 ft 7 kts 329°
2026-05-07 13:18 33.57794 130.45614 45 ft 31 kts 330°
2026-05-07 13:18 33.57922 130.45526 42 ft 32 kts 330°
2026-05-07 13:18 33.58264 130.45293 39 ft 98 kts 330°
2026-05-07 13:18 33.59130 130.44710 248 ft 172 kts 331°
2026-05-07 13:19 33.60286 130.43950 1118 ft 210 kts 330°
2026-05-07 13:19 33.61698 130.43037 1978 ft 242 kts 329°
2026-05-07 13:19 33.63183 130.42026 3150 ft 253 kts 327°
2026-05-07 13:19 33.64898 130.41339 4051 ft 273 kts 357°
2026-05-07 13:20 33.66754 130.41950 5254 ft 286 kts 32°
2026-05-07 13:20 33.68084 130.43693 6554 ft 286 kts 59°
2026-05-07 13:20 33.69017 130.45842 7392 ft 296 kts 70°
2026-05-07 13:20 33.69228 130.48312 8403 ft 304 kts 103°
2026-05-07 13:21 33.68335 130.50573 9619 ft 301 kts 136°
2026-05-07 13:21 33.66670 130.52043 10619 ft 300 kts 158°
2026-05-07 13:21 33.64743 130.53252 11086 ft 328 kts 156°
2026-05-07 13:21 33.62682 130.54565 12029 ft 339 kts 160°
2026-05-07 13:22 33.60499 130.55689 13216 ft 343 kts 163°
2026-05-07 13:22 33.58267 130.56751 14385 ft 347 kts 164°
2026-05-07 13:22 33.56015 130.57827 15514 ft 351 kts 164°
2026-05-07 13:22 33.53738 130.58930 16415 ft 356 kts 164°
2026-05-07 13:23 33.51434 130.60063 16908 ft 359 kts 164°
2026-05-07 13:23 33.49134 130.61215 16939 ft 359 kts 163°
2026-05-07 13:23 33.46825 130.62377 16946 ft 361 kts 163°
2026-05-07 13:23 33.44536 130.63606 16941 ft 363 kts 157°
2026-05-07 13:24 33.42560 130.65589 16938 ft 378 kts 135°
2026-05-07 13:24 33.40931 130.68098 16951 ft 386 kts 134°
2026-05-07 13:24 33.39257 130.70633 16951 ft 387 kts 134°
2026-05-07 13:24 33.37577 130.73121 16940 ft 382 kts 135°
2026-05-07 13:25 33.35902 130.75566 16934 ft 378 kts 135°
2026-05-07 13:25 33.34227 130.77999 16942 ft 380 kts 135°
2026-05-07 13:25 33.32595 130.80465 17163 ft 379 kts 129°
2026-05-07 13:25 33.31556 130.83457 17681 ft 404 kts 104°
2026-05-07 13:26 33.31486 130.86849 18455 ft 415 kts 82°
2026-05-07 13:26 33.32242 130.90165 19049 ft 416 kts 73°
2026-05-07 13:26 33.33132 130.93502 19711 ft 426 kts 73°
2026-05-07 13:26 33.34012 130.96902 20627 ft 430 kts 74°
2026-05-07 13:27 33.34868 131.00345 21592 ft 434 kts 75°
2026-05-07 13:27 33.35716 131.03829 22512 ft 440 kts 75°
2026-05-07 13:27 33.36573 131.07378 23327 ft 448 kts 75°
2026-05-07 13:27 33.37445 131.10994 24074 ft 455 kts 75°
2026-05-07 13:28 33.38326 131.14635 24942 ft 457 kts 75°
2026-05-07 13:28 33.39116 131.18329 25821 ft 459 kts 79°
2026-05-07 13:28 33.39714 131.22096 26643 ft 463 kts 81°
2026-05-07 13:28 33.40235 131.25922 27401 ft 468 kts 82°
2026-05-07 13:29 33.40746 131.29788 28153 ft 473 kts 82°
2026-05-07 13:29 33.41278 131.33698 28892 ft 478 kts 81°
2026-05-07 13:29 33.41835 131.37642 29560 ft 484 kts 81°
2026-05-07 13:29 33.42417 131.41632 30203 ft 489 kts 80°
2026-05-07 13:30 33.43014 131.45661 30789 ft 493 kts 80°
2026-05-07 13:30 33.43619 131.49719 31379 ft 496 kts 80°
2026-05-07 13:30 33.44225 131.53799 31930 ft 500 kts 80°
2026-05-07 13:30 33.44833 131.57911 32431 ft 505 kts 79°
2026-05-07 13:31 33.45444 131.62063 32894 ft 509 kts 79°
2026-05-07 13:31 33.46059 131.66263 32955 ft 515 kts 79°
2026-05-07 13:31 33.46673 131.70466 33185 ft 511 kts 79°
2026-05-07 13:31 33.47289 131.74688 33613 ft 516 kts 79°
2026-05-07 13:32 33.47904 131.78936 34091 ft 519 kts 79°
2026-05-07 13:32 33.48510 131.83140 34550 ft 520 kts 79°
2026-05-07 13:32 33.49125 131.87425 34965 ft 523 kts 79°
2026-05-07 13:32 33.49741 131.91728 35313 ft 526 kts 79°
2026-05-07 13:33 33.50361 131.96062 35653 ft 529 kts 79°
2026-05-07 13:33 33.50981 132.00411 36062 ft 529 kts 79°
2026-05-07 13:33 33.51598 132.04748 36575 ft 528 kts 79°
2026-05-07 13:33 33.52212 132.09074 37061 ft 526 kts 79°
2026-05-07 13:34 33.52824 132.13396 37543 ft 526 kts 80°
2026-05-07 13:34 33.54043 132.22036 38413 ft 525 kts 80°
2026-05-07 13:34 33.54649 132.26345 38805 ft 525 kts 80°
2026-05-07 13:35 33.55338 132.30645 39119 ft 525 kts 76°
2026-05-07 13:35 33.56325 132.34850 39401 ft 525 kts 69°
2026-05-07 13:35 33.57554 132.38972 39702 ft 525 kts 68°
2026-05-07 13:35 33.58816 132.43075 40002 ft 525 kts 68°
2026-05-07 13:36 33.60082 132.47181 40349 ft 525 kts 68°
2026-05-07 13:36 33.61338 132.51296 40671 ft 525 kts 68°
2026-05-07 13:36 33.62583 132.55428 40879 ft 528 kts 69°
2026-05-07 13:37 33.65053 132.63747 40921 ft 528 kts 69°
2026-05-07 13:37 33.67488 132.72011 40961 ft 524 kts 69°
2026-05-07 13:38 33.69912 132.80253 40953 ft 523 kts 69°
2026-05-07 13:38 33.72335 132.88492 40945 ft 523 kts 69°
2026-05-07 13:39 33.74755 132.96747 40948 ft 524 kts 69°
2026-05-07 13:39 33.77170 133.05012 40925 ft 525 kts 69°
2026-05-07 13:40 33.79581 133.13299 40945 ft 525 kts 69°